Regional Weather Roundup
Issued by NWS Little Rock, AR

Home | Current Version | Previous Version | Text Only | Print | Product List | Glossary On
Versions: 1 2 3 4 5 6 7 8 9 10 11 12 13 14 15 16 17 18 19 20 21 22 23 24 25 26 27 28 29 30 31 32 33 34 35 36 37 38 39 40 41 42 43 44 45 46 47 48 49 50
000
ASUS44 KLZK 170405
RWRLZK

WEATHER ROUNDUP FOR ARKANSAS
NATIONAL WEATHER SERVICE LITTLE ROCK AR
1100 PM CDT WED AUG 16 2017

NOTE: "FAIR" INDICATES FEW OR NO CLOUDS BELOW 12,000 FEET WITH NO
SIGNIFICANT WEATHER AND/OR OBSTRUCTIONS TO VISIBILITY.

ARZ001-003-010-029-170500-
NORTHWEST ARKANSAS

CITY           SKY/WX    TMP DP  RH WIND       PRES   REMARKS
FAYETTEVILLE   CLOUDY    77  75  93 CALM      29.97R
FORT SMITH     CLOUDY    83  76  79 E3        29.92R HX  91
HARRISON       CLOUDY    78  73  84 S7        29.97S
BENTONVILLE    CLOUDY    79  73  83 S3        29.99R
ROGERS         CLOUDY    78  74  87 S3        30.00R
SILOAM SPGS    CLOUDY    77  73  88 S3        29.97R
HIGHFILL       CLOUDY    77  76  96 W3        29.99R
$$

ARZ004-005-016-170500-
NORTH CENTRAL ARKANSAS

CITY           SKY/WX    TMP DP  RH WIND       PRES   REMARKS
BATESVILLE     CLEAR     81  73  78 CALM      29.95S HX  85
FLIPPIN        CLOUDY    81  70  69 CALM      29.92S
MTN HOME       CLOUDY    79  74  84 SE3       29.94S
$$

ARZ040-041-170500-
WEST CENTRAL ARKANSAS

CITY           SKY/WX    TMP DP  RH WIND       PRES   REMARKS
MENA           CLOUDY    84  81  89 CALM      29.97R HX  98
MOUNT IDA      CLOUDY    84  74  71 VRB5      29.94R HX  91
$$

ARZ009-017-025-026-028-170500-
NORTHEAST ARKANSAS

CITY           SKY/WX    TMP DP  RH WIND       PRES   REMARKS
JONESBORO      CLEAR     79  79 100 S5        29.94S
NEWPORT        CLEAR     77  75  93 S7        29.94F
WALNUT RIDGE   CLEAR     79  73  83 S7        29.94S
BLYTHEVILLE    CLEAR     79  77  94 S7        29.96S
$$

ARZ022-023-033-042-044-170500-
CENTRAL ARKANSAS

CITY           SKY/WX    TMP DP  RH WIND       PRES   REMARKS
LITTLE ROCK    PTCLDY    79  77  94 S10       29.95R
N LITTLE ROCK    N/A     82  76  81 S6        29.96R HX  88
JACKSONVILLE   CLEAR     80  78  95 S5        29.94R HX  85
CONWAY           N/A     81  77  89 CALM      29.93R HX  88
SEARCY           N/A    N/A N/A N/A MISG        N/A
HOT SPRINGS    PTCLDY    83  76  79 S7        29.96R HX  91
RUSSELLVILLE   MOCLDY    77  75  93 CALM      29.94R
CLINTON        FAIR      75  75 100 CALM      29.95S
$$

ARZ036-170500-
EAST ARKANSAS

CITY           SKY/WX    TMP DP  RH WIND       PRES   REMARKS
WEST MEMPHIS   CLEAR     79  77  94 S9        29.96R
$$

ARZ050-053-066-070-073-170500-
SOUTHWEST ARKANSAS

CITY           SKY/WX    TMP DP  RH WIND       PRES   REMARKS
ARKADELPHIA    FAIR      79  75  87 S5        29.95R
CAMDEN         CLEAR     77  72  83 S5        29.95S
TEXARKANA      CLEAR     80  77  90 S12       29.94R HX  87
EL DORADO      CLOUDY    77  75  93 S8        29.98R
DE QUEEN       CLEAR     80  78  94 SE3       29.91R HX  88
$$

ARZ056-057-069-170500-
SOUTHEAST ARKANSAS

CITY           SKY/WX    TMP DP  RH WIND       PRES   REMARKS
PINE BLUFF     CLEAR     78  73  84 S8        29.97R
MONTICELLO     PTCLDY    78  73  84 S8        29.99R

$$





USA.gov is the U.S. government's official web portal to all federal, state and local government web resources and services.